User: anonymous   Login
Location: Ripley
(48.3812°N, 115.4473°W)
Time: 14:38:28
(UTC+00:00)
Language:

BEESAT 3 - Orbit

View from above orbital plane
View from above orbital plane
View from above satellite
View from above satellite

Ground track
Ground track

The orbit data is extracted from the following two-line orbital elements,

1 39134U 13015E   22182.95586671  .00005361  00000-0  19489-3 0  9991
2 39134  64.8621  14.2838 0035175 277.3771  82.3364 15.28814493509454
Epoch (UTC): 01 July 2022 22:56:26
Eccentricity: 0.0035175
inclination: 64.8621°
perigee height: 455 km
apogee height: 503 km
right ascension of ascending node: 14.2838°
argument of perigee: 277.3771°
revolutions per day: 15.28814493
mean anomaly at epoch: 82.3364°
orbit number at epoch: 50945

The dashed part of the orbit path shows where the satellite is in the earth's shadow,  

DLR